Stations météo

réclame
Mon MeteoGroup
Chievres, Belgique (6432): Température de l'air & dewpoint: 11.08.2018 13:00:00 - 17.08.2018 13:00:00 (CEST)Chievres, Belgique (6432): Vitesse du vent & gusts: 11.08.2018 13:00:00 - 17.08.2018 13:00:00 (CEST)Chievres, Belgique (6432): Direction du vent: 11.08.2018 13:00:00 - 17.08.2018 13:00:00 (CEST)Chievres, Belgique (6432): reduced air pressure: 11.08.2018 13:00:00 - 17.08.2018 13:00:00 (CEST)Chievres, Belgique (6432): visibility: 11.08.2018 13:00:00 - 17.08.2018 13:00:00 (CEST)
Date & Time tt [°C] td [°C] ff [km/h] ff [knt] fx [km/h] fx [knt] dd ppp [hPa] vv [km]
17.08.2018 13:00:00 21,1 12,0 4 2 14 8 N 1020,2 20
17.08.2018 12:00:00 20,2 13,2 7 4 18 10 NNE 1020,0 20
17.08.2018 11:00:00 19,2 15,3 11 6 - - N 1019,7 18
17.08.2018 10:00:00 16,3 15,1 4 2 11 6 N 1019,3 14
17.08.2018 09:00:00 15,1 14,4 7 4 14 8 WNW 1018,7 12
17.08.2018 08:00:00 14,8 14,3 7 4 - - WNW 1018,3 16
17.08.2018 07:00:00 14,3 13,8 4 2 7 4 N 1017,7 17
17.08.2018 06:00:00 14,8 13,7 4 2 7 4 - 1017,3 10
17.08.2018 05:00:00 15,1 14,4 5 3 - - N 1017,5 10
17.08.2018 04:00:00 15,6 15,3 7 4 18 10 NW 1016,8 12
17.08.2018 03:00:00 16,0 15,9 9 5 14 8 N 1016,2 7
17.08.2018 02:00:00 15,9 15,8 13 7 - - NW 1016,7 1,2
17.08.2018 01:00:00 17,2 16,1 18 10 29 16 WNW 1016,7 2,6
17.08.2018 00:00:00 18,7 16,3 18 10 32 18 NNW 1016,2 15
16.08.2018 23:00:00 20,1 16,1 7 4 - - NNW 1015,5 20
16.08.2018 22:00:00 20,4 16,0 7 4 18 10 N 1014,8 20
16.08.2018 21:00:00 21,5 15,9 14 8 29 16 NNW 1014,6 20
16.08.2018 20:00:00 23,4 15,7 22 12 - - NNW 1014,2 20
16.08.2018 19:00:00 25,8 14,2 11 6 25 14 WNW 1014,0 20
16.08.2018 18:00:00 25,9 13,8 14 8 25 14 W 1014,2 20
16.08.2018 17:00:00 26,6 14,9 11 6 - - WNW 1014,5 20
16.08.2018 16:00:00 26,4 14,6 11 6 22 12 SW 1014,7 20
16.08.2018 15:00:00 25,7 15,1 11 6 47 25 WSW 1015,1 19
16.08.2018 14:00:00 24,1 15,1 14 8 - - SW 1015,6 20
16.08.2018 13:00:00 23,8 15,0 14 8 29 16 SW 1015,8 17
16.08.2018 12:00:00 22,0 15,1 14 8 25 14 SW 1016,3 20
16.08.2018 11:00:00 21,5 15,3 14 8 - - SSW 1016,7 20
16.08.2018 10:00:00 19,5 14,9 11 6 14 8 S 1017,1 13
16.08.2018 09:00:00 18,1 14,6 11 6 14 8 S 1017,2 14
16.08.2018 08:00:00 17,1 14,4 7 4 - - S 1017,3 13
16.08.2018 07:00:00 16,6 14,1 7 4 11 6 S 1017,7 12
16.08.2018 06:00:00 16,5 14,5 7 4 11 6 S 1017,7 11
16.08.2018 05:00:00 16,5 14,5 7 4 - - S 1018,0 14
16.08.2018 04:00:00 16,2 14,4 11 6 11 6 S 1018,2 12
16.08.2018 03:00:00 16,6 14,5 7 4 11 6 S 1018,7 14
16.08.2018 02:00:00 14,3 13,2 7 4 - - S 1019,2 10
16.08.2018 01:00:00 15,8 14,1 7 4 11 6 S 1019,2 15
16.08.2018 00:00:00 16,0 14,2 7 4 22 12 SSW 1019,6 14
15.08.2018 23:00:00 16,8 14,2 11 6 - - S 1019,3 20
15.08.2018 22:00:00 17,8 14,4 11 6 11 6 S 1019,6 20
15.08.2018 21:00:00 18,7 14,4 7 4 18 10 S 1019,3 20
15.08.2018 20:00:00 21,0 14,3 14 8 - - SSW 1019,3 20
15.08.2018 19:00:00 21,3 14,2 14 8 25 14 SSW 1019,7 20
15.08.2018 18:00:00 21,2 14,2 14 8 29 16 SW 1020,1 20
15.08.2018 17:00:00 21,3 14,4 18 10 - - SW 1020,3 20
15.08.2018 16:00:00 20,5 14,1 18 10 29 16 WSW 1020,5 20
15.08.2018 15:00:00 20,3 15,1 14 8 29 16 WSW 1020,7 19
15.08.2018 14:00:00 19,3 15,6 14 8 - - SW 1020,7 20
15.08.2018 13:00:00 17,8 16,2 14 8 29 16 WSW 1020,8 20
15.08.2018 12:00:00 18,6 15,7 11 6 22 12 W 1021,0 19
15.08.2018 11:00:00 18,7 15,7 11 6 - - WSW 1020,8 20
15.08.2018 10:00:00 18,7 15,7 18 10 25 14 WSW 1020,5 20
15.08.2018 09:00:00 17,5 15,3 14 8 22 12 SW 1020,2 20
15.08.2018 08:00:00 16,8 15,4 11 6 - - SSW 1019,7 16
15.08.2018 07:00:00 16,2 15,0 11 6 18 10 SW 1019,7 18
15.08.2018 06:00:00 16,0 14,8 11 6 18 10 SW 1019,2 20
15.08.2018 05:00:00 16,3 14,8 11 6 - - SW 1019,3 20
15.08.2018 04:00:00 16,6 14,7 11 6 22 12 SW 1019,3 20
15.08.2018 03:00:00 16,7 14,5 14 8 22 12 SW 1019,7 20
15.08.2018 02:00:00 16,6 14,0 11 6 - - SW 1020,0 20
15.08.2018 01:00:00 15,8 13,7 7 4 11 6 SSW 1020,1 20
15.08.2018 00:00:00 14,8 12,7 7 4 11 6 SW 1020,2 20
14.08.2018 23:00:00 17,5 13,3 7 4 - - WSW 1019,7 20
14.08.2018 22:00:00 19,0 13,2 7 4 18 10 W 1019,5 20
14.08.2018 21:00:00 19,6 12,5 11 6 22 12 W 1019,1 20
14.08.2018 20:00:00 20,5 12,5 11 6 - - WNW 1018,6 20
14.08.2018 19:00:00 21,7 11,7 18 10 29 16 WNW 1018,2 20
14.08.2018 18:00:00 22,2 12,4 14 8 29 16 W 1018,0 20
14.08.2018 17:00:00 21,8 13,1 14 8 - - W 1017,8 20
14.08.2018 16:00:00 22,1 13,3 22 12 32 18 W 1017,7 20
14.08.2018 15:00:00 22,0 14,5 18 10 25 14 W 1017,3 20
14.08.2018 14:00:00 22,0 14,3 18 10 - - W 1017,1 20
14.08.2018 13:00:00 21,7 16,0 11 6 22 12 W 1016,7 16
14.08.2018 12:00:00 19,7 16,2 14 8 22 12 W 1016,7 9
14.08.2018 11:00:00 19,5 16,1 11 6 - - W 1016,2 16
14.08.2018 10:00:00 18,6 16,8 11 6 14 8 WSW 1015,8 9
14.08.2018 09:00:00 17,7 16,5 7 4 14 8 WSW 1015,3 9
14.08.2018 08:00:00 17,0 16,1 11 6 - - SW 1014,6 8
14.08.2018 07:00:00 16,5 15,7 7 4 14 8 SW 1013,7 9
14.08.2018 06:00:00 16,3 15,5 11 6 22 12 SW 1013,2 10
14.08.2018 05:00:00 16,1 15,2 14 8 - - SW 1012,8 13
14.08.2018 04:00:00 15,7 15,0 14 8 18 10 SW 1012,6 16
14.08.2018 03:00:00 15,1 14,4 11 6 18 10 SSW 1012,2 17
14.08.2018 02:00:00 15,8 14,4 14 8 - - SW 1012,0 20
14.08.2018 01:00:00 15,8 14,2 11 6 14 8 SW 1011,6 20
14.08.2018 00:00:00 15,8 13,9 11 6 18 10 SW 1011,2 20
13.08.2018 23:00:00 17,3 14,1 11 6 - - WSW 1010,7 20
13.08.2018 22:00:00 18,2 14,6 14 8 22 12 WSW 1010,5 20
13.08.2018 21:00:00 19,0 14,5 14 8 36 19 W 1009,7 20
13.08.2018 20:00:00 20,7 14,3 25 14 - - W 1008,8 20
13.08.2018 19:00:00 20,1 15,9 4 2 18 10 N 1008,5 20
13.08.2018 18:00:00 19,3 16,0 14 8 36 19 WNW 1008,6 20
13.08.2018 17:00:00 21,5 14,2 18 10 - - W 1007,8 20
13.08.2018 16:00:00 21,6 13,8 25 14 40 21 WSW 1007,7 20
13.08.2018 15:00:00 21,7 15,1 18 10 32 18 WSW 1007,7 20
13.08.2018 14:00:00 19,5 17,3 18 10 - - SW 1007,7 20
13.08.2018 13:00:00 18,6 15,8 11 6 32 18 W 1007,7 20
13.08.2018 12:00:00 20,7 16,1 18 10 29 16 WSW 1007,5 20
13.08.2018 11:00:00 18,8 16,0 11 6 - - WSW 1007,3 20
13.08.2018 10:00:00 17,8 16,9 14 8 32 18 SW 1007,2 20
13.08.2018 09:00:00 17,7 16,9 14 8 18 10 SW 1007,2 20
13.08.2018 08:00:00 17,6 17,0 9 5 - - SSW 1007,0 10
13.08.2018 07:00:00 17,1 16,8 4 2 11 6 N 1007,0 9
13.08.2018 06:00:00 17,1 16,6 7 4 18 10 S 1007,2 15
13.08.2018 05:00:00 17,2 16,4 7 4 - - SSE 1006,8 20
13.08.2018 04:00:00 17,1 16,6 7 4 14 8 SSE 1007,2 16
13.08.2018 03:00:00 17,1 16,7 4 2 7 4 - 1007,7 7
13.08.2018 02:00:00 18,0 16,2 4 2 - - N 1009,2 17
13.08.2018 01:00:00 20,8 14,4 14 8 22 12 W 1009,1 20
13.08.2018 00:00:00 21,1 13,4 4 2 14 8 N 1008,7 20
12.08.2018 23:00:00 21,2 14,0 4 2 - - N 1008,8 20
12.08.2018 22:00:00 22,2 13,7 4 2 7 4 N 1009,0 20
12.08.2018 21:00:00 24,0 11,9 4 2 11 6 N 1009,2 20
12.08.2018 20:00:00 25,4 10,5 7 4 - - SSE 1009,6 20
12.08.2018 19:00:00 26,2 10,0 18 10 29 16 S 1010,2 20
12.08.2018 18:00:00 26,8 10,1 14 8 29 16 SSW 1010,7 20
12.08.2018 17:00:00 27,4 10,2 18 10 - - S 1011,5 20
12.08.2018 16:00:00 27,1 9,5 18 10 32 18 S 1012,3 20
12.08.2018 15:00:00 26,9 9,8 18 10 32 18 SSW 1013,1 20
12.08.2018 14:00:00 25,8 9,1 18 10 - - SSW 1014,0 20
12.08.2018 13:00:00 25,4 9,6 22 12 32 18 SSW 1014,8 20
12.08.2018 12:00:00 24,6 8,9 22 12 32 18 SSW 1015,5 20
12.08.2018 11:00:00 22,7 8,7 22 12 - - S 1015,8 20
12.08.2018 10:00:00 21,3 8,2 18 10 25 14 S 1016,3 20
12.08.2018 09:00:00 18,7 8,9 11 6 18 10 S 1017,1 20
12.08.2018 08:00:00 16,2 8,3 11 6 - - S 1017,2 15
12.08.2018 07:00:00 15,2 8,2 11 6 18 10 S 1017,7 20
12.08.2018 06:00:00 15,2 8,5 11 6 18 10 S 1017,7 20
12.08.2018 05:00:00 15,2 8,8 11 6 - - SSE 1018,3 20
12.08.2018 04:00:00 15,1 8,5 11 6 14 8 SSE 1019,2 20
12.08.2018 03:00:00 14,5 8,5 4 2 11 6 N 1019,7 20
12.08.2018 02:00:00 14,0 9,2 4 2 - - N 1020,6 20
12.08.2018 01:00:00 13,3 9,9 4 2 4 2 N 1021,2 20
12.08.2018 00:00:00 14,1 10,0 4 2 4 2 N 1021,6 20
11.08.2018 23:00:00 15,0 9,8 4 2 - - N 1022,0 20
11.08.2018 22:00:00 16,1 9,8 4 2 7 4 N 1022,2 20
11.08.2018 21:00:00 18,0 8,2 4 2 11 6 N 1022,2 20
11.08.2018 20:00:00 20,7 8,5 7 4 - - W 1022,1 20
11.08.2018 19:00:00 21,9 7,9 11 6 25 14 WSW 1022,5 20
11.08.2018 18:00:00 22,1 7,4 11 6 29 16 WSW 1022,7 20
11.08.2018 17:00:00 21,8 6,8 14 8 - - W 1023,1 20
11.08.2018 16:00:00 21,1 7,4 11 6 25 14 W 1023,6 20
11.08.2018 15:00:00 21,2 7,4 14 8 25 14 WSW 1024,0 20
11.08.2018 14:00:00 20,4 8,5 11 6 - - W 1024,2 20
11.08.2018 13:00:00 19,1 7,9 11 6 25 14 W 1024,5 20

tt = Température de l'air
td = dewpoint
ff = Vitesse du vent
fx = gusts
dd = Direction du vent
ppp = reduced air pressure
vv = visibility

stations d'obs. à proximité